Location: Beaver Brook Station
(42.3793°N, 71.2203°W)
Time: 01:26:54
(UTC+00:00)

Cosmos 44 - Pass Details

Date: 29 October 2020
Orbit: 578 x 784 km, 65.1° (Epoch: 25 November)

Event Time Altitude Azimuth Distance (km) Brightness Sun altitude
Rises 22:14:45 0° 228° (SW) 2,851 7.7 -6.8°
Reaches altitude 10° 22:17:00 10° 234° (SW) 1,977 6.9 -7.2°
Maximum altitude 22:21:19 47° 308° (NW) 852 4.1 -8.0°
Drops below altitude 10° 22:25:56 10° 23° (NNE) 2,110 5.5 -8.8°
Sets 22:28:25 0° 30° (NNE) 3,066 6.2 -9.3°
